Torna al catalogo

STARLINK-36530

AttivoComunicazioniVLEO
NORAD 67514·PAYLOAD·🇺🇸 United States

Lanciato Jan 18, 2026 da Cape Canaveral Space Force Station

Loading…

Prossimi Passaggi (prossime 24 ore)

TLE

AggiornatoSource: CelesTrak SupGP

Epoca: Sep 15, 2026, 03:30 UTC

1 67514C 26012X   26258.14631944  .00040078  00000+0  14512-2 0  2580
2 67514  43.0011 324.5018 0001511 265.6421 186.6926 15.27567150    19

Traccia STARLINK-36530 in tempo reale con AllMySat

Download on the App Store